Lid_Strength_Index
11 13 14 13 13 12 13 14 15 12 10 10 10 11 9 8 8 8 8 8 7 7 6 5 3 2 2 1 2 3 3 4 4 4 4 4 4 3 3 3 3 2 2 1
12 14 11 11 11 12 13 14 14 11 10 9 11 10 9 9 8 8 8 8 7 6 6 5 4 4 3 2 2 2 3 4 3 3 3 4 3 3 3 3 3 2 2 2
13 12 10 11 12 13 13 14 13 13 11 11 11 12 11 9 8 7 7 7 6 6 6 6 4 4 3 2 2 2 3 3 2 2 2 4 4 3 4 4 3 3 2 1
13 10 11 12 12 12 15 11 11 11 13 15 11 16 13 10 10 9 8 7 7 6 6 6 5 4 3 3 2 2 2 3 2 2 3 3 3 4 3 3 4 3 2 1
13 12 12 12 12 11 13 10 11 11 13 15 14 16 14 11 12 10 8 7 6 6 6 6 6 4 4 3 3 2 2 2 2 2 3 3 3 3 3 3 4 4 3 1
11 9 11 11 10 10 10 11 11 12 13 17 14 15 15 13 11 9 8 7 6 6 5 5 5 5 4 3 3 3 3 3 2 2 3 3 3 3 4 4 3 2 2 2
12 11 10 10 12 10 11 14 18 18 18 18 13 15 12 11 9 8 8 7 6 6 5 5 6 6 5 4 4 3 3 3 3 3 3 3 3 3 3 4 4 3 2 1
15 17 12 10 11 12 13 13 17 20 20 17 13 17 13 9 9 8 7 6 6 6 5 5 5 5 5 5 3 3 4 3 3 3 3 3 3 3 3 3 3 3 3 2
15 15 10 10 9 10 12 14 11 15 16 18 16 13 11 9 9 9 9 7 7 6 5 5 5 5 5 5 5 4 4 4 3 3 3 4 3 3 3 3 2 2 2 2
11 15 10 9 9 10 11 10 15 15 19 21 17 16 14 11 10 10 10 8 7 6 5 5 4 4 5 5 5 4 4 5 4 3 3 3 4 3 2 2 1 1 2 2
9 12 12 10 12 13 12 13 12 13 15 18 19 17 11 10 9 9 9 9 7 7 5 5 4 4 4 4 5 5 5 4 4 4 3 4 3 3 2 1 1 1 2 2
9 11 14 12 10 9 10 11 11 15 17 16 17 15 10 10 9 9 10 9 9 7 5 5 4 4 4 4 4 4 4 4 4 3 2 3 2 2 1 1 1 1 1 2
9 13 16 14 12 11 12 11 11 11 13 15 18 16 9 9 9 9 9 10 9 7 7 6 4 4 4 4 4 4 3 3 3 2 2 2 2 1 1 1 1 1 2 3
8 12 15 18 14 12 13 12 11 12 15 15 14 13 10 9 10 9 8 8 8 8 7 7 6 4 4 3 3 3 3 3 3 2 2 2 2 2 1 1 1 1 2 3
10 14 13 13 12 11 11 11 11 12 13 15 13 13 10 9 8 8 8 8 8 9 7 6 6 6 5 4 3 3 3 3 3 3 3 3 2 2 1 2 2 4 4 4
9 14 13 14 12 12 13 11 11 12 12 13 12 13 9 8 7 8 8 8 8 8 8 6 5 5 5 4 4 4 3 3 3 3 3 3 2 2 3 4 6 7 8 7
11 13 14 16 13 13 16 12 11 11 10 11 13 11 9 9 8 8 8 8 8 8 8 6 5 4 4 4 4 4 3 3 3 3 3 2 3 5 6 7 7 8 8 8
12 13 13 16 15 20 13 10 9 10 10 9 10 10 9 8 8 7 7 8 7 7 7 7 6 4 4 5 6 4 3 3 3 3 5 5 6 6 7 7 8 8 8 9
9 12 15 17 17 14 13 11 11 11 11 9 9 9 9 9 10 10 8 8 7 7 6 7 6 4 4 5 5 5 4 4 5 6 7 7 7 8 8 9 9 9 10 10
10 10 14 16 19 20 14 10 8 8 14 9 8 8 8 9 13 11 8 8 7 8 7 6 4 4 4 6 5 6 6 6 7 7 7 7 7 8 9 10 9 10 10 9
14 14 16 16 17 15 10 9 8 16 15 8 8 8 9 10 9 8 8 7 6 5 5 4 4 4 5 5 5 8 8 8 7 8 8 8 8 9 9 10 10 10 11 12
15 16 16 15 17 19 8 9 13 10 8 8 7 7 8 8 8 8 8 7 6 6 6 5 6 7 7 6 7 9 10 10 9 9 10 10 10 10 10 11 12 13 13 14
14 12 14 13 13 8 7 8 7 7 7 7 7 6 7 7 7 7 7 7 6 6 6 6 7 7 7 8 9 10 11 11 11 11 10 10 10 10 11 13 13 12 13 14
10 8 12 11 9 8 7 6 6 6 6 6 6 6 7 7 7 7 7 7 7 8 8 7 8 9 11 11 11 11 11 10 10 11 11 11 13 13 13 12 12 13 14 15
10 9 10 10 8 7 7 6 5 6 5 5 5 6 6 7 7 7 7 7 7 7 8 8 9 10 11 10 10 10 10 9 10 11 13 13 14 15 16 16 15 15 15 14
9 10 12 13 9 9 8 6 5 6 6 5 6 6 6 5 6 7 7 7 8 8 9 10 10 10 10 10 10 9 9 10 13 15 15 15 16 16 16 17 17 15 15 15